Location: Wangen+im+Allg�u
(47.7098°N, 9.8383°E)
Time: 01:26:05
(UTC+02:00)

ISS - Pass Details

Date: 16 November 2017
Orbit: 401 x 409 km, 51.6° (Epoch: 22 August)

Event Time Altitude Azimuth Distance (km) Brightness Sun altitude
Exits shadow 05:38:53 27° 204° (SSW) 818 -2.5 -18.2°
Drops below altitude 10° 05:41:18 10° 157° (SSE) 1,448 -0.6 -17.8°
Sets 05:43:32 0° 145° (SE) 2,303 0.7 -17.4°
